This is the latest recevied weather packets stored in our database for station/object OK5TVR-5. If no packets are shown the sender has not sent any weather packets the latest 10 day(s).
| Time | Temp. | Humidity | Pressure | Rain* | Wind** | Luminosity | Snow |
|---|---|---|---|---|---|---|---|
| 1777205776 | 17.22° C | 32% | 1015.8 hPa | 0 mm | - | 295 W/m² | - |
| 1777204875 | 14.44° C | 31% | 1016.2 hPa | 0 mm | - | 315 W/m² | - |
| 1777204875 | 14.44° C | 31% | 1016.2 hPa | 0 mm | - | 315 W/m² | - |
| 1777203975 | 17.22° C | 32% | 1015.9 hPa | 0 mm | - | 340 W/m² | - |
| 1777203975 | 17.22° C | 32% | 1015.9 hPa | 0 mm | - | 340 W/m² | - |
| 1777203074 | 16.11° C | 31% | 1016 hPa | 0 mm | - | 367 W/m² | - |
| 1777203073 | 16.11° C | 31% | 1016 hPa | 0 mm | - | 367 W/m² | - |
| 1777202174 | 16.67° C | 32% | 1015.9 hPa | 0 mm | - | 370 W/m² | - |
| 1777201273 | 16.11° C | 36% | 1016 hPa | 0 mm | - | 373 W/m² | - |
| 1777201273 | 16.11° C | 36% | 1016 hPa | 0 mm | - | 373 W/m² | - |
| 1777200371 | 14.44° C | 36% | 1016.3 hPa | 0 mm | - | 406 W/m² | - |
| 1777200371 | 14.44° C | 36% | 1016.3 hPa | 0 mm | - | 406 W/m² | - |
| 1777199468 | 14.44° C | 35% | 1016.2 hPa | 0 mm | - | 414 W/m² | - |
| 1777199468 | 14.44° C | 35% | 1016.2 hPa | 0 mm | - | 414 W/m² | - |
| 1777198568 | 15.56° C | 40% | 1016.1 hPa | 0 mm | - | 414 W/m² | - |
| 1777198568 | 15.56° C | 40% | 1016.1 hPa | 0 mm | - | 414 W/m² | - |
| 1777198568 | 15.56° C | 40% | 1016.1 hPa | 0 mm | - | 414 W/m² | - |
| 1777197665 | 14.44° C | 36% | 1016.2 hPa | 0 mm | - | 397 W/m² | - |
| 1777197665 | 14.44° C | 36% | 1016.2 hPa | 0 mm | - | 397 W/m² | - |
| 1777197665 | 14.44° C | 36% | 1016.2 hPa | 0 mm | - | 397 W/m² | - |
| 1777196765 | 14.44° C | 39% | 1017.2 hPa | 0 mm | - | 383 W/m² | - |
| 1777196765 | 14.44° C | 39% | 1017.2 hPa | 0 mm | - | 383 W/m² | - |
| 1777195866 | 14.44° C | 47% | 1017.3 hPa | 0 mm | - | 365 W/m² | - |
| 1777195866 | 14.44° C | 47% | 1017.3 hPa | 0 mm | - | 365 W/m² | - |
| 1777194966 | 13.89° C | 46% | 1017.3 hPa | 0 mm | - | 349 W/m² | - |
* Rain latest hour (hover to see other rain measurements)
** Current wind speed in m/s (hover to see current wind gust speed)